Hourly Weather Barletta

Today, 1 October, Thursday

Time Temperature Precipitation Wind Pressure Humidity
00:00 +20°C° 0 mm 1 mps 757 mmHg 61%
01:00 +19°C° 0 mm 1 mps 757 mmHg 63%
02:00 +19°C° 0 mm 1 mps 757 mmHg 65%
03:00 +19°C° 0 mm 1 mps 756 mmHg 67%
04:00 +19°C° 0 mm 1 mps 756 mmHg 68%
05:00 +19°C° 0 mm 1 mps 756 mmHg 67%
06:00 +19°C° 0 mm 1 mps 756 mmHg 66%
07:00 +19°C° 0 mm 2 mps 756 mmHg 65%
08:00 +21°C° 0 mm 1 mps 756 mmHg 58%
09:00 +23°C° 0 mm 1 mps 756 mmHg 52%
10:00 +25°C° 0 mm 1 mps 756 mmHg 45%
11:00 +26°C° 0 mm 1 mps 755 mmHg 43%
12:00 +26°C° 0 mm 2 mps 755 mmHg 40%
13:00 +27°C° 0 mm 3 mps 755 mmHg 38%
14:00 +27°C° 0 mm 3 mps 755 mmHg 40%
15:00 +27°C° 0 mm 4 mps 754 mmHg 43%
16:00 +26°C° 0 mm 5 mps 754 mmHg 46%
17:00 +25°C° 0 mm 5 mps 754 mmHg 53%
18:00 +23°C° 0 mm 4 mps 754 mmHg 59%
19:00 +22°C° 0 mm 4 mps 755 mmHg 66%
20:00 +22°C° 0 mm 4 mps 755 mmHg 67%
21:00 +21°C° 0 mm 3 mps 755 mmHg 69%
22:00 +21°C° 0 mm 3 mps 755 mmHg 70%
23:00 +20°C° 0 mm 3 mps 755 mmHg 71%

Tomorrow, 2 October, Friday

Time Temperature Precipitation Wind Pressure Humidity
00:00 +20°C° 0 mm 3 mps 754 mmHg 71%
01:00 +19°C° 0 mm 3 mps 754 mmHg 71%
02:00 +19°C° 0 mm 3 mps 754 mmHg 72%
03:00 +19°C° 0 mm 3 mps 754 mmHg 73%
04:00 +18°C° 0 mm 2 mps 754 mmHg 73%
05:00 +19°C° 0 mm 2 mps 754 mmHg 72%
06:00 +19°C° 0 mm 2 mps 754 mmHg 71%
07:00 +19°C° 0 mm 2 mps 754 mmHg 70%
08:00 +21°C° 0 mm 2 mps 754 mmHg 59%
09:00 +24°C° 0 mm 2 mps 754 mmHg 49%
10:00 +26°C° 0 mm 2 mps 754 mmHg 38%
11:00 +27°C° 0 mm 2 mps 754 mmHg 34%
12:00 +29°C° 0 mm 3 mps 754 mmHg 30%
13:00 +30°C° 0 mm 3 mps 753 mmHg 26%
14:00 +30°C° 0 mm 4 mps 753 mmHg 30%
15:00 +30°C° 0 mm 5 mps 753 mmHg 33%
16:00 +29°C° 0 mm 6 mps 753 mmHg 37%
17:00 +28°C° 0 mm 6 mps 753 mmHg 48%
18:00 +27°C° 0 mm 7 mps 753 mmHg 59%
19:00 +24°C° 0 mm 7 mps 753 mmHg 70%
20:00 +24°C° 0 mm 6 mps 754 mmHg 69%
21:00 +23°C° 0 mm 6 mps 754 mmHg 68%
22:00 +23°C° 0 mm 6 mps 754 mmHg 66%
23:00 +23°C° 0 mm 5 mps 754 mmHg 66%

Day after tomorrow, 3 October, Saturday

Time Temperature Precipitation Wind Pressure Humidity
00:00 +23°C° 0 mm 5 mps 754 mmHg 66%
01:00 +23°C° 0 mm 5 mps 753 mmHg 66%
02:00 +23°C° 0 mm 5 mps 754 mmHg 70%
03:00 +23°C° 0 mm 5 mps 754 mmHg 73%
04:00 +23°C° 0 mm 6 mps 754 mmHg 75%
05:00 +23°C° 0 mm 6 mps 754 mmHg 76%
06:00 +24°C° 0 mm 7 mps 754 mmHg 76%
07:00 +24°C° 0 mm 8 mps 754 mmHg 77%
08:00 +27°C° 0 mm 8 mps 753 mmHg 68%
09:00 +29°C° 0 mm 8 mps 753 mmHg 59%
10:00 +31°C° 0 mm 8 mps 753 mmHg 50%
11:00 +32°C° 0 mm 9 mps 753 mmHg 50%
12:00 +33°C° 0 mm 10 mps 753 mmHg 49%
13:00 +33°C° 0 mm 10 mps 753 mmHg 49%
14:00 +33°C° 0 mm 10 mps 752 mmHg 52%
15:00 +32°C° 0 mm 10 mps 752 mmHg 54%
16:00 +31°C° 0 mm 10 mps 752 mmHg 57%
17:00 +29°C° 0 mm 10 mps 752 mmHg 62%
18:00 +28°C° 0 mm 11 mps 752 mmHg 68%
19:00 +27°C° 0 mm 12 mps 751 mmHg 74%
20:00 +27°C° 0 mm 11 mps 752 mmHg 76%
21:00 +27°C° 0 mm 9 mps 752 mmHg 78%
22:00 +26°C° 0 mm 8 mps 752 mmHg 81%
23:00 +26°C° 0 mm 7 mps 752 mmHg 78%

4 October, Sunday

Time Temperature Precipitation Wind Pressure Humidity
00:00 +26°C° 0 mm 5 mps 753 mmHg 76%
01:00 +25°C° 0 mm 4 mps 753 mmHg 74%
02:00 +25°C° 0 mm 3 mps 753 mmHg 72%
03:00 +24°C° 0 mm 3 mps 753 mmHg 70%
04:00 +24°C° 0 mm 3 mps 754 mmHg 69%
05:00 +24°C° 0 mm 2 mps 754 mmHg 68%
06:00 +24°C° 0 mm 2 mps 754 mmHg 68%
07:00 +24°C° 0 mm 2 mps 754 mmHg 68%
08:00 +26°C° 0 mm 2 mps 754 mmHg 62%
09:00 +27°C° 0 mm 2 mps 754 mmHg 56%
10:00 +29°C° 0 mm 2 mps 754 mmHg 51%
11:00 +29°C° 0 mm 2 mps 754 mmHg 47%
12:00 +30°C° 0 mm 3 mps 754 mmHg 43%
13:00 +31°C° 0 mm 3 mps 754 mmHg 39%
14:00 +30°C° 0 mm 3 mps 754 mmHg 38%
15:00 +30°C° 0 mm 4 mps 754 mmHg 37%
16:00 +29°C° 0 mm 4 mps 753 mmHg 36%
17:00 +27°C° 0 mm 5 mps 754 mmHg 41%
18:00 +26°C° 0 mm 5 mps 754 mmHg 45%
19:00 +23°C° 0 mm 6 mps 754 mmHg 50%
20:00 +22°C° 0 mm 5 mps 755 mmHg 54%
21:00 +21°C° 0 mm 5 mps 755 mmHg 57%
22:00 +21°C° 0 mm 4 mps 755 mmHg 61%
23:00 +20°C° 0 mm 4 mps 755 mmHg 63%

5 October, Monday

Time Temperature Precipitation Wind Pressure Humidity
00:00 +20°C° 0 mm 4 mps 755 mmHg 64%
01:00 +20°C° 0 mm 4 mps 755 mmHg 66%
02:00 +20°C° 0 mm 3 mps 755 mmHg 63%
03:00 +20°C° 0 mm 3 mps 754 mmHg 60%
04:00 +20°C° 0 mm 3 mps 754 mmHg 57%
05:00 +20°C° 0 mm 3 mps 754 mmHg 54%
06:00 +20°C° 0 mm 3 mps 754 mmHg 52%
07:00 +21°C° 0 mm 3 mps 754 mmHg 49%
08:00 +22°C° 0 mm 4 mps 754 mmHg 46%
09:00 +25°C° 0 mm 4 mps 754 mmHg 44%
10:00 +27°C° 0 mm 5 mps 754 mmHg 41%
11:00 +27°C° 0 mm 5 mps 754 mmHg 41%
12:00 +27°C° 0 mm 5 mps 754 mmHg 42%
13:00 +27°C° 0 mm 6 mps 754 mmHg 42%
14:00 +27°C° 0 mm 6 mps 754 mmHg 42%
15:00 +27°C° 0 mm 6 mps 754 mmHg 42%
16:00 +26°C° 0 mm 6 mps 754 mmHg 42%
17:00 +24°C° 0 mm 6 mps 754 mmHg 45%
18:00 +23°C° 0 mm 6 mps 755 mmHg 48%
19:00 +21°C° 0 mm 5 mps 755 mmHg 51%
20:00 +21°C° 0 mm 6 mps 755 mmHg 55%
21:00 +20°C° 0 mm 6 mps 755 mmHg 60%
22:00 +19°C° 0 mm 6 mps 755 mmHg 64%
23:00 +19°C° 0 mm 6 mps 755 mmHg 65%

6 October, Tuesday

Time Temperature Precipitation Wind Pressure Humidity
00:00 +18°C° 0 mm 7 mps 755 mmHg 65%
01:00 +18°C° 0 mm 7 mps 755 mmHg 66%
02:00 +17°C° 0 mm 7 mps 755 mmHg 67%
03:00 +17°C° 0 mm 7 mps 755 mmHg 68%
04:00 +17°C° 0 mm 6 mps 754 mmHg 68%
05:00 +17°C° 0 mm 6 mps 755 mmHg 67%
06:00 +17°C° 0 mm 6 mps 755 mmHg 66%
07:00 +17°C° 0 mm 6 mps 755 mmHg 65%
08:00 +20°C° 0 mm 6 mps 755 mmHg 56%
09:00 +22°C° 0 mm 6 mps 755 mmHg 47%
10:00 +24°C° 0 mm 6 mps 755 mmHg 38%
11:00 +26°C° 0 mm 6 mps 755 mmHg 36%
12:00 +26°C° 0 mm 6 mps 755 mmHg 33%
13:00 +27°C° 0 mm 6 mps 755 mmHg 30%
14:00 +27°C° 0 mm 6 mps 755 mmHg 33%
15:00 +26°C° 0 mm 7 mps 755 mmHg 35%
16:00 +24°C° 0 mm 7 mps 755 mmHg 37%
17:00 +23°C° 0 mm 6 mps 755 mmHg 43%
18:00 +22°C° 0 mm 6 mps 755 mmHg 48%
19:00 +20°C° 0 mm 6 mps 755 mmHg 54%
20:00 +20°C° 0 mm 6 mps 756 mmHg 57%
21:00 +19°C° 0 mm 6 mps 756 mmHg 60%
22:00 +17°C° 0 mm 6 mps 756 mmHg 64%
23:00 +17°C° 0 mm 6 mps 756 mmHg 65%
Show more